Location: Newark
(31.5350°N, 35.0986°E)
Time: 01:05:47
(UTC+00:00)

Courier 1B - Pass Details

Date: 24 September 2019
Orbit: 962 x 1209 km, 28.3° (Epoch: 22 October)

Event Time Altitude Azimuth Distance (km) Brightness Sun altitude
Exits shadow 03:00:46 - 252° (WSW) 3,002 9.4 -6.8°
Reaches altitude 10° 03:01:32 10° 251° (WSW) 2,733 9.2 -6.6°
Maximum altitude 03:08:04 63° 171° (S) 1,128 7.9 -5.2°
Drops below altitude 10° 03:14:59 10° 92° (E) 2,891 12.0 -3.8°
Sets 03:17:50 0° 90° (E) 3,887 14.2 -3.2°
